Location: Balaclava NSW 2575, Australia
(34.4510°S, 150.4953°E)
Time: 01:40:47
(UTC+10:00)

A-11 Canister half - Pass Details

Date: 21 June 2021
Orbit: 1513 x 1687 km, 47.2° (Epoch: 28 July)

Event Time Altitude Azimuth Distance (km) Brightness Sun altitude
Rises 17:40:04 0° 271° (W) 4,689 13.0 -9.2°
Reaches altitude 10° 17:43:19 10° 264° (W) 3,727 12.1 -9.8°
Maximum altitude 17:52:12 43° 194° (SSW) 2,109 9.7 -11.5°
Enters shadow 18:00:17 14° 127° (SE) 3,543 10.3 -13.1°
